SWA1849 KDEN-KDAL

Flight info

Callsign SWA1849
Flight time N/A
Altitude 37000
Route SLEEK2 SLEEK KA39Y STNLI JFRYE5
Aircraft B737/M-SDE2E3FGHIRWXY/LB1

Departure

Time 2026-05-07 18:30
Airport Denver International Airport (KDEN)

Arrival

Time N/A
Airport Dallas Love Field (KDAL)
Time Latitude Longitude Altitude Speed Heading
2026-05-07 18:06 39.86259 -104.67736 5378 ft 0 kts 359°
2026-05-07 18:20 39.86256 -104.67736 5378 ft 1 kts 358°
2026-05-07 18:20 39.86246 -104.67738 5377 ft 2 kts 28°
2026-05-07 18:20 39.86235 -104.67744 5378 ft 2 kts 357°
2026-05-07 18:20 39.86220 -104.67743 5378 ft 2 kts 359°
2026-05-07 18:21 39.86205 -104.67743 5377 ft 2 kts 358°
2026-05-07 18:21 39.86190 -104.67742 5378 ft 2 kts 359°
2026-05-07 18:21 39.86175 -104.67741 5378 ft 2 kts 358°
2026-05-07 18:21 39.86161 -104.67741 5378 ft 2 kts 358°
2026-05-07 18:22 39.86147 -104.67741 5378 ft 2 kts 358°
2026-05-07 18:22 39.86141 -104.67741 5378 ft 0 kts 358°
2026-05-07 18:22 39.86165 -104.67741 5377 ft 0 kts 358°
2026-05-07 18:25 39.86169 -104.67763 5377 ft 8 kts 249°
2026-05-07 18:26 39.86092 -104.67829 5379 ft 14 kts 224°
2026-05-07 18:26 39.86030 -104.67911 5380 ft 11 kts 235°
2026-05-07 18:26 39.86041 -104.68000 5380 ft 10 kts 298°
2026-05-07 18:26 39.86070 -104.68105 5379 ft 11 kts 274°
2026-05-07 18:27 39.86042 -104.68194 5378 ft 12 kts 248°
2026-05-07 18:27 39.86030 -104.68355 5374 ft 21 kts 271°
2026-05-07 18:27 39.86053 -104.68493 5374 ft 14 kts 327°
2026-05-07 18:27 39.86148 -104.68507 5374 ft 12 kts 357°
2026-05-07 18:28 39.86250 -104.68508 5374 ft 18 kts
2026-05-07 18:28 39.86377 -104.68506 5373 ft 17 kts 359°
2026-05-07 18:28 39.86425 -104.68559 5371 ft 4 kts 275°
2026-05-07 18:28 39.86427 -104.68587 5369 ft 5 kts 273°
2026-05-07 18:29 39.86430 -104.68654 5366 ft 9 kts 274°
2026-05-07 18:29 39.86462 -104.68719 5365 ft 7 kts 344°
2026-05-07 18:29 39.86511 -104.68719 5365 ft 8 kts
2026-05-07 18:29 39.86710 -104.68716 5365 ft 60 kts 359°
2026-05-07 18:30 39.87365 -104.68709 5365 ft 122 kts
2026-05-07 18:30 39.88385 -104.68695 5386 ft 168 kts 358°
2026-05-07 18:30 39.89561 -104.68653 5924 ft 168 kts 358°
2026-05-07 18:30 39.90710 -104.68296 6123 ft 181 kts 25°
2026-05-07 18:31 39.91734 -104.67295 6577 ft 189 kts 51°
2026-05-07 18:31 39.92209 -104.65672 7026 ft 201 kts 89°
2026-05-07 18:31 39.91824 -104.63921 7475 ft 210 kts 126°
2026-05-07 18:31 39.90678 -104.62695 7893 ft 222 kts 155°
2026-05-07 18:32 39.89206 -104.61807 8293 ft 241 kts 158°
2026-05-07 18:32 39.87606 -104.60873 8764 ft 260 kts 159°
2026-05-07 18:32 39.85828 -104.60118 9290 ft 275 kts 168°
2026-05-07 18:32 39.83915 -104.59602 9842 ft 290 kts 171°
2026-05-07 18:33 39.81876 -104.59061 10372 ft 307 kts 169°
2026-05-07 18:33 39.79745 -104.58414 10910 ft 324 kts 168°
2026-05-07 18:33 39.77459 -104.57658 11450 ft 341 kts 167°
2026-05-07 18:33 39.75118 -104.56859 11988 ft 356 kts 166°
2026-05-07 18:34 39.72650 -104.56008 12479 ft 373 kts 167°
2026-05-07 18:34 39.70112 -104.55134 13016 ft 387 kts 166°
2026-05-07 18:34 39.67461 -104.54224 13799 ft 394 kts 167°
2026-05-07 18:34 39.64812 -104.53316 14738 ft 396 kts 167°
2026-05-07 18:35 39.62169 -104.52412 15564 ft 402 kts 167°
2026-05-07 18:35 39.59434 -104.51482 16452 ft 406 kts 167°
2026-05-07 18:35 39.56659 -104.50541 17228 ft 413 kts 168°
2026-05-07 18:35 39.53877 -104.49601 18037 ft 418 kts 168°
2026-05-07 18:36 39.51021 -104.48636 18811 ft 423 kts 168°
2026-05-07 18:36 39.48145 -104.47665 19571 ft 428 kts 168°
2026-05-07 18:36 39.45231 -104.46680 20328 ft 433 kts 168°
2026-05-07 18:36 39.42299 -104.45694 21106 ft 437 kts 168°
2026-05-07 18:37 39.39348 -104.44701 21826 ft 442 kts 169°
2026-05-07 18:37 39.36357 -104.43693 22528 ft 447 kts 168°
2026-05-07 18:37 39.33327 -104.42673 23233 ft 452 kts 168°
2026-05-07 18:37 39.30269 -104.41647 23909 ft 457 kts 169°
2026-05-07 18:38 39.27198 -104.40616 24612 ft 461 kts 169°
2026-05-07 18:38 39.24060 -104.39562 25227 ft 466 kts 169°
2026-05-07 18:38 39.20945 -104.38518 25848 ft 471 kts 169°
2026-05-07 18:38 39.17754 -104.37449 26447 ft 475 kts 169°
2026-05-07 18:39 39.14536 -104.36371 27026 ft 480 kts 169°
2026-05-07 18:39 39.11265 -104.35287 27634 ft 484 kts 169°
2026-05-07 18:39 39.07981 -104.34219 28089 ft 491 kts 171°
2026-05-07 18:40 39.07609 -104.34100 28147 ft 491 kts 170°
2026-05-07 18:41 39.04152 -104.32993 28773 ft 494 kts 171°
2026-05-07 18:41 39.00813 -104.31931 29320 ft 498 kts 171°
2026-05-07 18:41 38.97399 -104.30846 29852 ft 502 kts 171°
2026-05-07 18:41 38.94429 -104.29903 30554 ft 499 kts 171°
2026-05-07 18:42 38.91099 -104.28843 31383 ft 495 kts 171°
2026-05-07 18:42 38.87733 -104.27770 32124 ft 493 kts 171°